Location: Black Creek
(40.9000°S, 175.5500°E)
Time: 08:50:12
(UTC+00:00)

Explorer 7 - Pass Details

Date: 14 November 2024
Orbit: 455 x 598 km, 50.3° (Epoch: 07 December)

Event Time Altitude Azimuth Distance (km) Brightness Sun altitude
Rises 10:20:51 0° 248° (WSW) 2,550 10.9 -26.2°
Reaches altitude 10° 10:23:29 10° 266° (W) 1,644 9.6 -26.4°
Enters shadow 10:24:04 13° 273° (W) 1,482 9.2 -26.5°
